Regional Weather Roundup
Issued by NWS Charleston, SC

Current Version | Previous Version | Text Only | Print | Product List | Glossary On
Versions: 1 2 3 4 5 6 7 8 9 10 11 12 13 14 15 16 17 18 19 20 21 22 23 24 25 26 27 28 29 30 31 32 33 34 35 36 37 38 39 40 41 42 43 44 45 46 47 48 49 50
000 ASUS42 KCHS 271228 RWRCHS REGIONAL WEATHER ROUNDUP NATIONAL WEATHER SERVICE CHARLESTON SC 800 AM EDT WED JUL 27 2016 NOTE: "FAIR" INDICATES FEW OR NO CLOUDS BELOW 12,000 FEET WITH NO SIGNIFICANT WEATHER AND/OR OBSTRUCTIONS TO VISIBILITY. NOT ALL STATIONS ARE QUALITY CONTROLLED. USE DATA WITH CAUTION... ESPECIALLY DEWPOINT OBSERVATIONS. SCZ027-030-031-034>040-042>050-271300- ...SOUTHEAST SOUTH CAROLINA... CITY SKY/WX TMP DP RH WIND PRES REMARKS N CHARLESTON MOSUNNY 82 73 74 W9 30.04R 6HR MIN TEMP: 79; 6HR MAX TEMP: 82; WATERFRONT PRK N/A 82 75 79 W5 30.01R MOUNT PLEASANT FAIR 82 75 78 W6 30.04S JOHNS ISLAND FAIR 84 75 74 W6 30.05R HX 92 PINOPOLIS N/A 81 75 83 SW7 29.96R MONCKS CORNER FAIR 79 72 78 SW7 30.04R SUMMERVILLE FAIR 79 77 94 CALM 30.05R BEAUFORT MCAS MOSUNNY 82 73 74 VRB6 30.05S 6HR MIN TEMP: 78; 6HR MAX TEMP: 83; BEAUFORT ARPT FAIR 81 73 78 W12 30.05R HILTON HEAD IS SUNNY 81 73 78 SW6 30.07R WALTERBORO SUNNY 82 75 78 W8 30.06R ALLENDALE FAIR 81 73 78 CALM 30.05R ...SOUTHERN MIDLANDS AND PEE DEE... CITY SKY/WX TMP DP RH WIND PRES REMARKS GEORGETOWN FAIR 79 73 83 W9 30.04R KINGSTREE FAIR 81 73 78 SW5 30.03S ORANGEBURG SUNNY 79 74 84 SW7 30.05R 6HR MIN TEMP: 75; 6HR MAX TEMP: 79; BARNWELL NOT AVBL AIKEN FAIR 79 72 78 SW9 30.09R MANNING FAIR 79 73 83 SW7 30.04R COLUMBIA MOSUNNY 81 72 74 SW5 30.02S 6HR MIN TEMP: 78; 6HR MAX TEMP: 83; SUMTER SUNNY 81 73 76 SW8 30.00S 6HR MIN TEMP: 78; 6HR MAX TEMP: 82; FLORENCE SUNNY 81 74 79 W9 30.02R 6HR MIN TEMP: 78; 6HR MAX TEMP: 82; MYRTLE BEACH SUNNY 81 70 69 W9 30.02F N MYRTLE BEACH SUNNY 82 75 79 W7 30.01R 6HR MIN TEMP: 80; 6HR MAX TEMP: 82; $$ GAZ063-065-086>088-099>101-113>116-118-119-134>141-150-271300- ...SOUTHEAST GEORGIA... CITY SKY/WX TMP DP RH WIND PRES REMARKS SAVANNAH ARPT MOSUNNY 79 72 79 W8 30.07R 6HR MIN TEMP: 77; 6HR MAX TEMP: 81; HUNTER AAF SUNNY 79 76 91 W7 30.05R 6HR MIN TEMP: 76; 6HR MAX TEMP: 81; FORT STEWART SUNNY 78 73 82 W5 30.05R 6HR MIN TEMP: 76; 6HR MAX TEMP: 80; STATESBORO SUNNY 81 76 84 W6 30.07R SYLVANIA NOT AVBL CLAXTON FAIR 80 75 85 SW5 30.08R ...CSRA...CENTRAL AND FAR SOUTHEAST GEORGIA... CITY SKY/WX TMP DP RH WIND PRES REMARKS THOMSON NOT AVBL AUGUSTA-BUSH SUNNY 79 73 82 W7 30.05R 6HR MIN TEMP: 74; 6HR MAX TEMP: 79; AUGUSTA-DANIEL SUNNY 80 72 76 VRB6 30.06R SWAINSBORO FAIR 79 73 83 W6 30.08R VIDALIA SUNNY 79 73 83 SW6 30.08S EASTMAN FAIR 78 77 96 CALM 30.11R HAZLEHURST FAIR 80 78 94 CALM 30.07S ALMA SUNNY 76 74 93 CALM 30.08R 6HR MIN TEMP: 72; 6HR MAX TEMP: 79; WAYCROSS SUNNY 81 78 91 CALM 30.09R JESUP FAIR 79 77 94 CALM 30.08S BAXLEY FAIR 79 79 100 S3 30.08S BRUNSWICK SUNNY 81 77 89 W6 30.09R SAINT SIMONS SUNNY 81 74 79 W5 30.07S 6HR MIN TEMP: 78; 6HR MAX TEMP: 82; $$ SCZ027-028-034-036>038-045-046-048>050-GAZ119-141-271300- ...LAKE AND SUPPLEMENTAL COASTAL OBSERVATIONS... STATION/POSITION TIME TEMP WIND PRES WAVE SWELL AIR SEA DIR/SP/G HT/PER HT/PER/DIR (UTC) (F) (DEG/KT/KT) (MB) (FT/S) (FT/S/D) WINYAH BAY 1100 79 260/ 5 1016.0 LAKE MURRAY NOT AVBL ACE BASIN NERRS 1100 80 230/ 1 1017.0S FORT PULASKI 1200 80 87 260/ 10/ 13 1018.4R SAPELO ISLAND 1200 80 260/ 5 1018.0S $$ ANZ835-935-AMZ111-154-330-350-352-354-370-450-454-472-271300- ...C-MAN AND BUOY OBSERVATIONS... STATION/POSITION TIME TEMP WIND PRES WAVE SWELL AIR SEA DIR/SP/G HT/PER HT/PER/DIR (UTC) (F) (DEG/KT/KT) (MB) (FT/S) (FT/S/D) BUOY 41004 1150 85 86 260/ 14/ 16 1016.6R 4/ 5 BUOY 41008 1150 83 86 290/ 14/ 16 1018.1R 2/ 3 FOLLY BEACH CMAN 1200 82 250/ 5/ 8 1017.4R CAPERS NEARSHORE 1208 83 83 260/ 10/ 14 1017.1R FRIPP NEARSHORE 1208 82 87 280/ 12/ 16 1017.2R STATION/POSITION TIME TEMP WIND PRES WAVE SWELL AIR SEA DIR/SP/G HT/PER HT/PER/DIR (UTC) (F) (DEG/KT/KT) (MB) (FT/S) (FT/S/D) 5E ST. MARYS GA 1201 86 N/A 2/ 5 FRYING PAN BUOY 1200 85 85 250/ 16/ 21 1016.0S BUOY 41025 1150 84 84 250/ 14/ 16 1015.0R 4/ 6 2/200/14 CAPE LOOKOUT NC 1200 83 250/ 15/ 17 1015.0R BUOY 41002 1150 84 84 270/ 14/ 17 1017.5S 3/ 5 2/150/ 8 BUOY 41010 1120 85 86 190/ 6/ 8 1018.8R ST AUGUSTINE FL 1200 80 84 310/ 3/ 4 1019.7R $$

USA.gov is the U.S. government's official web portal to all federal, state and local government web resources and services.